QPF
0.00 0.00 0.00 0.00 0.00 0.00 0.00 0.00 0.00 0.00 0.00 0.00 0.00 0.00 0.00 0.00 0.00 0.00 0.00 0.00 0.00 0.00 0.00 0.00 0.00 0.00 0.00 0.00 0.00 0.00 0.00 0.00 0.00 0.00 0.00 0.00 0.00 0.00 0.00 0.00 0.00 0.00 0.00
0.00 0.00 0.00 0.00 0.00 0.00 0.00 0.00 0.00 0.00 0.00 0.00 0.00 0.00 0.00 0.00 0.00 0.00 0.00 0.00 0.00 0.00 0.00 0.00 0.00 0.00 0.00 0.00 0.00 0.00 0.00 0.00 0.00 0.00 0.00 0.00 0.00 0.00 0.00 0.00 0.00 0.00 0.00
0.02 0.01 0.00 0.00 0.00 0.00 0.00 0.00 0.00 0.00 0.00 0.00 0.00 0.00 0.00 0.00 0.00 0.00 0.00 0.00 0.00 0.00 0.00 0.00 0.00 0.00 0.00 0.00 0.00 0.00 0.00 0.00 0.00 0.00 0.00 0.00 0.00 0.00 0.00 0.00 0.00 0.00 0.00
0.05 0.03 0.01 0.00 0.00 0.00 0.00 0.00 0.00 0.00 0.00 0.00 0.00 0.00 0.00 0.00 0.00 0.00 0.00 0.00 0.00 0.00 0.00 0.00 0.00 0.00 0.00 0.00 0.00 0.00 0.00 0.00 0.00 0.00 0.00 0.00 0.00 0.00 0.00 0.00 0.00 0.00 0.00
0.04 0.02 0.01 0.00 0.00 0.00 0.00 0.00 0.00 0.00 0.00 0.00 0.00 0.00 0.00 0.00 0.00 0.00 0.00 0.00 0.00 0.00 0.00 0.00 0.00 0.00 0.00 0.00 0.00 0.00 0.00 0.00 0.00 0.00 0.00 0.00 0.00 0.00 0.00 0.00 0.00 0.00 0.00
0.01 0.00 0.00 0.00 0.00 0.00 0.00 0.00 0.00 0.00 0.00 0.00 0.00 0.00 0.00 0.00 0.00 0.00 0.00 0.00 0.00 0.00 0.00 0.00 0.00 0.00 0.00 0.00 0.00 0.00 0.00 0.00 0.00 0.00 0.00 0.00 0.00 0.00 0.00 0.00 0.00 0.00 0.00
0.00 0.00 0.00 0.00 0.00 0.00 0.00 0.00 0.00 0.00 0.00 0.00 0.00 0.00 0.00 0.00 0.00 0.00 0.00 0.00 0.00 0.00 0.00 0.00 0.00 0.00 0.00 0.00 0.00 0.00 0.00 0.00 0.00 0.00 0.00 0.00 0.00 0.00 0.00 0.00 0.00 0.00 0.00
0.00 0.00 0.00 0.00 0.00 0.00 0.00 0.00 0.00 0.00 0.00 0.00 0.00 0.00 0.00 0.00 0.00 0.00 0.00 0.00 0.00 0.00 0.00 0.00 0.00 0.00 0.00 0.00 0.00 0.00 0.00 0.00 0.00 0.00 0.00 0.00 0.00 0.00 0.00 0.00 0.00 0.00 0.00
0.00 0.00 0.00 0.00 0.00 0.00 0.00 0.00 0.00 0.00 0.00 0.00 0.00 0.00 0.00 0.00 0.00 0.00 0.00 0.00 0.00 0.00 0.00 0.00 0.00 0.00 0.00 0.00 0.00 0.00 0.00 0.00 0.00 0.00 0.00 0.00 0.00 0.00 0.00 0.00 0.00 0.00 0.00
0.00 0.00 0.00 0.00 0.00 0.00 0.00 0.00 0.00 0.00 0.00 0.00 0.00 0.00 0.00 0.00 0.00 0.00 0.00 0.00 0.00 0.00 0.00 0.00 0.00 0.00 0.00 0.00 0.00 0.00 0.00 0.00 0.00 0.00 0.00 0.00 0.00 0.00 0.00 0.00 0.00 0.00 0.00
0.00 0.00 0.00 0.00 0.00 0.00 0.00 0.00 0.00 0.00 0.00 0.00 0.00 0.00 0.00 0.00 0.00 0.00 0.00 0.00 0.00 0.00 0.00 0.00 0.00 0.00 0.00 0.00 0.00 0.00 0.00 0.00 0.00 0.00 0.00 0.00 0.00 0.00 0.00 0.00 0.00 0.00 0.00
0.00 0.00 0.00 0.00 0.00 0.00 0.00 0.00 0.02 0.01 0.00 0.00 0.00 0.00 0.00 0.00 0.00 0.00 0.00 0.00 0.00 0.00 0.00 0.00 0.00 0.00 0.00 0.00 0.00 0.00 0.00 0.00 0.00 0.00 0.00 0.00 0.00 0.00 0.00 0.00 0.00 0.00 0.00
0.01 0.00 0.00 0.00 0.00 0.00 0.01 0.02 0.01 0.00 0.00 0.00 0.00 0.00 0.00 0.00 0.00 0.00 0.00 0.00 0.00 0.00 0.00 0.00 0.00 0.00 0.00 0.00 0.00 0.00 0.00 0.00 0.00 0.00 0.00 0.00 0.00 0.00 0.00 0.00 0.00 0.00 0.00
0.01 0.00 0.00 0.02 0.01 0.01 0.00 0.00 0.00 0.00 0.00 0.00 0.00 0.00 0.00 0.00 0.00 0.00 0.00 0.00 0.00 0.00 0.00 0.00 0.00 0.00 0.00 0.00 0.00 0.00 0.00 0.00 0.00 0.00 0.00 0.00 0.00 0.00 0.00 0.00 0.00 0.00 0.00
0.01 0.00 0.01 0.01 0.00 0.00 0.00 0.00 0.00 0.00 0.00 0.00 0.00 0.00 0.00 0.00 0.00 0.00 0.00 0.00 0.00 0.00 0.00 0.00 0.00 0.00 0.00 0.00 0.00 0.00 0.00 0.00 0.00 0.00 0.00 0.00 0.00 0.00 0.00 0.00 0.00 0.00 0.00
0.02 0.01 0.00 0.00 0.00 0.01 0.01 0.00 0.00 0.00 0.00 0.00 0.00 0.00 0.00 0.00 0.00 0.00 0.00 0.00 0.00 0.00 0.00 0.00 0.00 0.00 0.00 0.00 0.00 0.00 0.00 0.00 0.00 0.00 0.00 0.00 0.00 0.00 0.00 0.00 0.00 0.00 0.00
0.01 0.01 0.01 0.02 0.04 0.06 0.03 0.00 0.00 0.00 0.00 0.00 0.00 0.00 0.00 0.00 0.00 0.00 0.00 0.00 0.00 0.00 0.00 0.00 0.00 0.00 0.00 0.00 0.00 0.00 0.00 0.00 0.00 0.00 0.00 0.00 0.00 0.00 0.00 0.00 0.00 0.00 0.00
0.01 0.01 0.01 0.03 0.01 0.00 0.00 0.02 0.01 0.00 0.00 0.00 0.00 0.00 0.00 0.00 0.00 0.00 0.00 0.00 0.00 0.00 0.00 0.00 0.00 0.00 0.00 0.00 0.00 0.00 0.00 0.00 0.00 0.00 0.00 0.00 0.00 0.00 0.00 0.00 0.00 0.00 0.00
0.00 0.00 0.00 0.01 0.03 0.02 0.02 0.01 0.00 0.00 0.00 0.00 0.00 0.00 0.00 0.00 0.00 0.00 0.00 0.00 0.00 0.00 0.00 0.00 0.00 0.00 0.00 0.00 0.00 0.00 0.00 0.00 0.00 0.00 0.00 0.00 0.00 0.00 0.00 0.00 0.00 0.00 0.00
0.00 0.01 0.01 0.01 0.01 0.01 0.00 0.00 0.00 0.00 0.00 0.00 0.00 0.00 0.00 0.00 0.00 0.00 0.00 0.00 0.00 0.00 0.00 0.00 0.00 0.00 0.00 0.00 0.00 0.00 0.00 0.00 0.00 0.00 0.00 0.00 0.00 0.00 0.00 0.00 0.00 0.00 0.00
0.00 0.00 0.00 0.01 0.01 0.00 0.00 0.00 0.00 0.00 0.00 0.00 0.00 0.00 0.00 0.00 0.00 0.00 0.00 0.00 0.00 0.00 0.00 0.00 0.00 0.00 0.00 0.00 0.00 0.00 0.00 0.00 0.00 0.00 0.00 0.00 0.00 0.00 0.00 0.00 0.00 0.00 0.00
0.01 0.01 0.02 0.02 0.02 0.01 0.00 0.00 0.00 0.00 0.00 0.00 0.00 0.00 0.00 0.00 0.00 0.00 0.00 0.00 0.00 0.00 0.00 0.00 0.00 0.00 0.00 0.00 0.00 0.00 0.00 0.00 0.00 0.00 0.00 0.00 0.00 0.00 0.00 0.00 0.00 0.00 0.00
0.03 0.06 0.10 0.07 0.03 0.00 0.00 0.00 0.00 0.00 0.00 0.00 0.00 0.00 0.00 0.00 0.00 0.00 0.00 0.00 0.00 0.00 0.00 0.00 0.00 0.00 0.00 0.00 0.00 0.00 0.00 0.00 0.00 0.00 0.00 0.00 0.00 0.00 0.00 0.00 0.00 0.00 0.00
0.10 0.09 0.03 0.00 0.00 0.00 0.00 0.00 0.00 0.00 0.00 0.00 0.00 0.00 0.00 0.00 0.00 0.00 0.00 0.00 0.00 0.00 0.00 0.00 0.00 0.00 0.00 0.00 0.00 0.00 0.00 0.00 0.00 0.00 0.00 0.00 0.00 0.00 0.00 0.00 0.00 0.00 0.00
0.00 0.00 0.00 0.00 0.00 0.00 0.00 0.00 0.00 0.00 0.00 0.00 0.00 0.00 0.00 0.00 0.00 0.00 0.00 0.00 0.00 0.00 0.00 0.00 0.00 0.00 0.00 0.00 0.00 0.00 0.00 0.00 0.00 0.00 0.00 0.00 0.00 0.00 0.00 0.00 0.00 0.00 0.00
0.00 0.00 0.00 0.00 0.00 0.00 0.00 0.00 0.00 0.00 0.00 0.00 0.00 0.00 0.00 0.00 0.00 0.00 0.00 0.00 0.00 0.00 0.00 0.00 0.00 0.00 0.00 0.00 0.00 0.00 0.00 0.00 0.00 0.00 0.00 0.00 0.00 0.00 0.00 0.00 0.00 0.00 0.00
MSLP
1024.10 1024.41 1024.84 1025.37 1025.62 1025.85 1025.91 1026.12 1026.40 1026.74 1026.95 1027.19 1027.22 1027.07 1027.21 1027.20 1027.23 1026.99 1026.98 1027.13 1026.66 1026.34 1026.71 1026.86 1027.19 1027.35 1027.33 1027.34 1027.34 1027.31 1027.32 1027.22 1027.12 1027.04 1026.91 1026.92 1026.80 1026.76 1026.58 1026.42 1026.29 1025.90 1025.54
1024.21 1024.47 1025.16 1025.45 1025.64 1025.76 1025.90 1025.91 1026.46 1026.58 1027.06 1027.10 1027.38 1027.65 1027.75 1027.31 1027.15 1027.25 1027.02 1027.27 1027.05 1026.74 1026.89 1027.01 1027.16 1027.25 1027.22 1027.27 1027.40 1027.39 1027.33 1027.29 1027.25 1027.16 1026.95 1026.76 1026.73 1026.67 1026.60 1026.46 1026.36 1026.13 1025.81
1024.12 1024.49 1024.97 1025.20 1025.53 1025.98 1026.18 1026.52 1026.84 1026.92 1027.17 1027.35 1027.60 1027.68 1027.66 1027.57 1027.39 1027.41 1027.38 1027.48 1027.35 1027.55 1027.45 1027.44 1027.65 1027.56 1027.43 1027.47 1027.42 1027.33 1027.32 1027.37 1027.26 1027.15 1026.99 1026.89 1026.91 1026.77 1026.55 1026.48 1026.41 1026.18 1025.82
1024.04 1024.47 1024.83 1025.06 1025.55 1026.15 1026.27 1026.58 1026.80 1026.97 1027.32 1027.06 1027.33 1027.59 1027.67 1027.77 1027.91 1027.86 1027.85 1027.67 1027.71 1027.74 1027.92 1027.95 1027.90 1027.74 1027.59 1027.51 1027.49 1027.46 1027.44 1027.29 1027.23 1027.16 1026.99 1026.98 1026.86 1026.76 1026.63 1026.47 1026.35 1026.13 1025.85
1023.89 1024.16 1024.55 1025.17 1025.79 1026.18 1026.20 1026.43 1026.90 1027.12 1027.12 1027.23 1027.39 1027.61 1028.04 1027.98 1028.01 1027.86 1027.90 1027.96 1028.08 1027.99 1027.92 1028.24 1028.08 1027.86 1027.72 1027.69 1027.66 1027.59 1027.47 1027.30 1027.12 1026.98 1026.89 1026.81 1026.66 1026.52 1026.50 1026.40 1026.28 1026.04 1025.77
1023.78 1023.98 1024.47 1025.16 1025.60 1025.74 1026.11 1026.53 1026.72 1027.32 1027.13 1027.14 1027.55 1027.96 1028.43 1028.46 1028.40 1028.20 1028.12 1028.19 1028.15 1028.13 1028.01 1027.92 1027.80 1027.84 1028.00 1027.95 1027.91 1027.71 1027.40 1027.20 1027.06 1026.93 1026.83 1026.74 1026.57 1026.40 1026.22 1026.16 1026.00 1025.79 1025.51
1023.46 1023.80 1024.22 1024.80 1025.18 1025.52 1025.86 1026.59 1026.89 1027.01 1027.14 1027.44 1027.74 1028.03 1028.22 1028.49 1028.47 1028.26 1028.28 1028.16 1028.15 1028.01 1028.07 1027.95 1027.79 1027.71 1027.73 1028.09 1028.02 1027.80 1027.46 1027.21 1027.11 1027.00 1026.85 1026.75 1026.53 1026.27 1026.10 1025.96 1025.76 1025.51 1025.29
1023.32 1023.63 1024.05 1024.52 1025.14 1025.55 1026.22 1026.67 1026.59 1026.78 1027.21 1027.65 1027.66 1027.98 1027.36 1027.72 1027.91 1028.03 1028.07 1027.92 1027.97 1027.84 1027.85 1027.87 1027.84 1027.82 1027.85 1027.78 1027.98 1027.95 1027.68 1027.50 1027.30 1027.07 1026.83 1026.60 1026.24 1025.95 1025.80 1025.65 1025.47 1025.22 1024.94
1023.30 1023.48 1024.11 1024.64 1025.15 1025.46 1025.91 1026.47 1026.44 1026.67 1027.17 1027.86 1028.07 1027.71 1027.19 1026.92 1027.25 1027.37 1027.55 1027.62 1027.79 1027.75 1027.76 1027.74 1027.81 1027.87 1027.96 1027.85 1027.88 1027.78 1027.90 1027.80 1027.50 1027.17 1026.77 1026.41 1026.10 1025.83 1025.63 1025.37 1025.12 1024.90 1024.61
1023.28 1023.54 1024.07 1024.61 1025.06 1025.47 1025.83 1026.12 1026.52 1026.98 1027.14 1027.55 1027.85 1027.82 1027.72 1027.63 1027.21 1026.59 1027.14 1027.24 1027.50 1027.63 1027.56 1027.43 1027.50 1027.67 1027.85 1027.73 1027.92 1028.04 1027.90 1027.88 1027.70 1027.37 1027.04 1026.64 1026.21 1025.81 1025.46 1025.13 1024.85 1024.49 1024.24
1023.20 1023.40 1023.79 1024.40 1024.92 1025.25 1025.64 1026.11 1026.73 1026.98 1026.87 1027.56 1027.51 1027.48 1027.45 1027.58 1027.63 1027.32 1026.36 1026.49 1027.13 1027.10 1027.22 1027.43 1027.62 1027.65 1027.82 1027.77 1027.57 1027.76 1027.95 1027.87 1027.82 1027.47 1027.01 1026.59 1026.15 1025.73 1025.33 1024.90 1024.52 1024.08 1023.83
1022.78 1023.19 1023.72 1024.20 1024.61 1025.00 1025.72 1026.50 1027.29 1027.50 1027.21 1027.03 1027.00 1027.14 1027.00 1026.96 1026.83 1026.94 1026.50 1026.37 1026.60 1026.80 1027.32 1027.38 1027.30 1027.45 1027.68 1027.71 1027.80 1027.92 1027.80 1027.67 1027.44 1027.07 1026.62 1026.27 1025.86 1025.43 1025.01 1024.60 1024.26 1023.86 1023.45
1022.54 1022.93 1023.38 1023.93 1024.41 1025.20 1025.95 1026.53 1026.32 1026.88 1026.91 1026.77 1026.70 1026.84 1027.05 1027.01 1027.05 1027.00 1026.87 1026.52 1026.69 1026.68 1026.80 1027.14 1027.02 1027.24 1027.36 1027.51 1027.53 1027.75 1027.35 1027.27 1026.97 1026.67 1026.31 1025.95 1025.58 1025.15 1024.75 1024.40 1023.99 1023.52 1023.04
1021.95 1022.51 1022.98 1023.81 1024.14 1024.76 1025.09 1025.99 1026.27 1026.48 1026.57 1026.56 1026.66 1026.76 1026.80 1026.95 1027.10 1027.20 1027.09 1026.91 1026.34 1025.99 1026.05 1026.64 1026.82 1026.94 1027.18 1027.26 1027.37 1027.28 1026.81 1026.90 1026.74 1026.40 1026.01 1025.60 1025.24 1024.86 1024.45 1024.01 1023.52 1023.11 1022.61
1021.98 1022.39 1023.10 1023.82 1024.40 1024.85 1025.40 1025.73 1026.21 1025.92 1026.32 1026.35 1026.41 1026.56 1026.85 1026.96 1027.11 1026.93 1026.81 1026.73 1026.62 1026.23 1025.70 1025.87 1026.40 1026.61 1026.80 1026.93 1026.87 1026.92 1026.69 1026.44 1026.38 1025.98 1025.61 1025.31 1024.88 1024.40 1023.94 1023.54 1023.06 1022.68 1022.29
1022.10 1022.62 1023.29 1024.08 1024.95 1025.58 1025.54 1025.54 1025.80 1025.92 1026.06 1026.15 1026.19 1026.43 1026.51 1026.44 1026.52 1026.53 1026.61 1026.59 1026.64 1026.42 1025.80 1025.79 1025.90 1026.30 1026.56 1026.53 1026.67 1026.74 1026.31 1026.24 1025.80 1025.59 1025.27 1024.88 1024.38 1023.90 1023.45 1023.02 1022.65 1022.33 1022.03
1022.09 1022.76 1023.40 1023.89 1024.56 1025.11 1025.76 1025.69 1025.72 1025.68 1025.67 1025.75 1025.95 1025.99 1025.91 1026.06 1026.12 1026.18 1026.37 1026.43 1026.32 1026.20 1025.93 1025.41 1025.92 1026.18 1026.33 1026.31 1026.17 1026.19 1026.11 1025.71 1025.06 1024.90 1024.76 1024.29 1023.77 1023.34 1022.92 1022.57 1022.18 1021.82 1021.53
1021.78 1022.41 1023.13 1023.88 1024.20 1024.05 1024.48 1024.73 1025.11 1025.25 1025.22 1025.28 1025.34 1025.50 1025.45 1025.56 1025.73 1025.82 1025.92 1025.85 1025.80 1025.80 1025.83 1025.22 1025.25 1025.76 1026.01 1025.87 1025.85 1025.79 1025.52 1025.21 1024.69 1024.26 1024.12 1023.65 1023.18 1022.79 1022.36 1021.96 1021.61 1021.24 1020.84
1021.58 1022.22 1023.04 1023.51 1024.35 1024.26 1024.35 1024.40 1024.61 1024.70 1024.76 1024.88 1024.78 1024.79 1024.82 1024.98 1025.04 1025.08 1025.23 1025.23 1025.25 1025.44 1025.45 1025.30 1024.90 1025.18 1025.56 1025.55 1025.37 1025.22 1024.90 1024.53 1024.16 1023.80 1023.29 1022.93 1022.58 1022.15 1021.82 1021.35 1020.92 1020.47 1020.08
1021.87 1022.51 1023.16 1023.34 1023.74 1023.86 1024.25 1024.42 1024.40 1024.39 1024.19 1024.03 1024.10 1024.15 1024.13 1024.23 1024.22 1024.27 1024.50 1024.64 1024.76 1024.81 1024.83 1024.80 1024.62 1024.59 1024.75 1024.84 1025.04 1024.70 1024.15 1023.78 1023.38 1023.04 1022.52 1022.41 1022.03 1021.49 1021.01 1020.51 1020.11 1019.69 1019.31
1022.34 1022.88 1023.34 1023.53 1023.90 1023.94 1024.09 1024.20 1024.06 1023.92 1023.58 1023.39 1023.39 1023.41 1023.39 1023.39 1023.50 1023.61 1023.84 1023.90 1024.24 1024.20 1024.26 1024.26 1024.08 1024.05 1024.10 1024.08 1024.14 1024.24 1023.92 1023.41 1022.85 1022.31 1021.82 1021.38 1020.83 1020.32 1019.71 1019.40 1019.05 1018.73 1018.55
1022.66 1023.23 1023.45 1023.83 1023.96 1023.88 1023.77 1023.75 1023.77 1023.43 1023.10 1022.91 1022.61 1022.43 1022.41 1022.78 1023.01 1023.34 1023.56 1023.82 1024.11 1023.75 1023.80 1023.84 1023.59 1023.45 1023.53 1023.72 1024.00 1023.95 1023.65 1023.12 1022.33 1021.66 1021.34 1020.88 1020.41 1019.63 1019.06 1018.56 1018.34 1018.22 1017.80
1023.06 1023.29 1023.50 1023.71 1023.66 1023.41 1023.33 1023.32 1023.20 1023.05 1022.64 1022.24 1021.94 1021.74 1021.59 1021.81 1022.11 1022.28 1022.70 1022.85 1023.12 1023.26 1023.52 1023.48 1023.25 1023.12 1023.17 1023.44 1023.61 1023.48 1023.20 1022.87 1022.27 1021.70 1021.32 1020.29 1019.87 1019.08 1018.62 1018.08 1017.72 1017.47 1016.99
1023.17 1023.26 1023.21 1023.26 1023.22 1023.04 1023.14 1023.03 1022.88 1022.59 1022.07 1021.60 1021.33 1021.11 1020.97 1020.87 1021.08 1021.35 1021.74 1021.97 1021.92 1022.08 1022.41 1022.77 1022.68 1022.65 1022.79 1023.15 1023.26 1023.23 1023.03 1022.69 1022.11 1021.36 1020.94 1020.03 1019.42 1018.70 1018.16 1017.64 1016.89 1016.59 1016.36
1022.86 1022.98 1023.04 1023.01 1022.91 1022.70 1022.67 1022.60 1022.55 1021.98 1021.34 1020.83 1020.58 1020.37 1020.28 1020.16 1020.18 1020.56 1020.80 1021.23 1021.08 1021.23 1021.63 1022.01 1022.23 1022.48 1022.81 1023.10 1023.09 1022.67 1022.27 1021.91 1021.29 1020.70 1020.35 1019.96 1019.05 1018.37 1017.68 1016.80 1016.17 1016.06 1015.71
1022.89 1022.95 1022.81 1022.66 1022.53 1022.31 1022.09 1022.05 1021.86 1021.42 1020.79 1020.17 1019.71 1019.50 1019.46 1019.33 1019.30 1019.61 1020.14 1020.38 1020.32 1020.17 1020.55 1021.06 1021.40 1021.62 1021.93 1021.89 1022.30 1022.24 1021.79 1021.48 1021.07 1020.32 1019.79 1020.06 1019.28 1018.64 1017.30 1016.47 1016.13 1015.92 1015.21
Thickness
5601 5599 5596 5593 5591 5590 5589 5588 5586 5581 5579 5576 5574 5574 5573 5571 5567 5565 5561 5558 5557 5555 5548 5545 5540 5536 5534 5531 5528 5526 5523 5521 5519 5518 5518 5518 5519 5520 5522 5524 5525 5529 5532
5596 5596 5590 5588 5586 5587 5586 5587 5580 5579 5573 5572 5569 5566 5561 5562 5560 5555 5552 5546 5545 5542 5537 5533 5529 5527 5526 5523 5519 5516 5515 5513 5511 5509 5507 5509 5510 5510 5511 5512 5513 5516 5520
5594 5592 5586 5586 5585 5582 5581 5578 5574 5572 5568 5566 5562 5558 5554 5551 5548 5543 5539 5534 5531 5527 5524 5520 5515 5514 5513 5511 5509 5507 5505 5502 5501 5500 5500 5500 5498 5498 5499 5500 5501 5504 5508
5591 5589 5587 5586 5583 5579 5578 5574 5568 5566 5560 5561 5555 5549 5545 5539 5534 5530 5525 5523 5519 5514 5510 5507 5504 5503 5501 5499 5496 5494 5492 5492 5491 5490 5489 5488 5488 5488 5489 5489 5489 5490 5492
5592 5589 5586 5583 5578 5575 5573 5568 5563 5557 5555 5551 5545 5539 5532 5527 5523 5520 5516 5512 5506 5502 5498 5494 5493 5491 5488 5486 5483 5481 5479 5479 5479 5479 5478 5477 5477 5477 5477 5477 5478 5479 5481
5590 5588 5583 5579 5575 5572 5567 5560 5557 5547 5546 5543 5535 5527 5519 5514 5511 5508 5503 5498 5494 5490 5486 5483 5481 5478 5475 5472 5469 5467 5467 5466 5464 5463 5462 5461 5461 5461 5461 5461 5462 5463 5466
5588 5585 5582 5578 5573 5567 5562 5552 5546 5542 5537 5530 5524 5517 5511 5505 5501 5497 5491 5487 5483 5480 5475 5471 5468 5465 5461 5457 5454 5452 5451 5450 5447 5445 5443 5442 5441 5441 5442 5442 5443 5444 5446
5585 5583 5578 5573 5566 5559 5550 5542 5541 5535 5527 5519 5516 5507 5510 5502 5493 5487 5481 5478 5473 5469 5463 5459 5455 5451 5446 5442 5438 5435 5432 5430 5427 5424 5422 5421 5421 5422 5422 5421 5422 5423 5425
5581 5579 5572 5564 5557 5551 5544 5535 5532 5525 5517 5506 5499 5499 5499 5498 5485 5480 5472 5466 5459 5454 5449 5444 5438 5433 5429 5425 5421 5417 5412 5409 5406 5403 5400 5399 5398 5398 5398 5399 5400 5401 5402
5575 5572 5563 5556 5549 5542 5534 5528 5519 5512 5507 5500 5491 5484 5480 5476 5476 5474 5463 5457 5447 5440 5434 5429 5423 5416 5410 5405 5399 5393 5389 5384 5379 5376 5373 5371 5370 5370 5371 5372 5374 5376 5378
5568 5563 5556 5549 5541 5534 5527 5518 5509 5502 5497 5486 5483 5477 5471 5463 5457 5454 5458 5450 5436 5429 5420 5411 5402 5396 5388 5382 5375 5367 5360 5355 5348 5345 5343 5341 5340 5340 5341 5343 5347 5352 5354
5562 5556 5549 5541 5534 5528 5517 5507 5497 5489 5486 5481 5475 5467 5463 5457 5451 5443 5440 5435 5425 5416 5401 5390 5382 5373 5364 5356 5347 5339 5332 5325 5321 5319 5318 5316 5315 5316 5318 5320 5323 5327 5331
5557 5551 5543 5534 5527 5518 5508 5500 5495 5485 5478 5474 5466 5459 5449 5441 5433 5426 5420 5417 5406 5397 5388 5372 5361 5350 5340 5329 5318 5309 5305 5301 5299 5298 5296 5294 5293 5294 5295 5297 5299 5302 5305
5555 5546 5538 5528 5521 5512 5504 5493 5485 5477 5469 5462 5453 5445 5436 5427 5417 5407 5400 5392 5389 5384 5372 5355 5341 5330 5318 5306 5297 5290 5286 5281 5277 5274 5273 5272 5271 5272 5272 5272 5274 5276 5280
5547 5540 5530 5519 5509 5500 5491 5484 5473 5468 5457 5449 5441 5431 5420 5410 5400 5392 5384 5374 5364 5359 5356 5339 5322 5309 5297 5287 5279 5272 5267 5263 5259 5257 5255 5254 5253 5252 5253 5253 5255 5257 5260
5538 5530 5518 5506 5493 5484 5480 5470 5462 5453 5444 5436 5426 5416 5407 5399 5389 5378 5367 5356 5345 5336 5333 5318 5305 5291 5278 5269 5260 5254 5251 5247 5245 5242 5241 5239 5239 5238 5239 5240 5243 5245 5247
5528 5518 5507 5499 5488 5478 5468 5459 5449 5442 5436 5425 5414 5405 5397 5387 5376 5364 5352 5340 5330 5319 5310 5306 5290 5274 5262 5252 5245 5240 5235 5233 5234 5231 5228 5228 5228 5228 5229 5231 5234 5236 5239
5520 5510 5501 5488 5479 5475 5464 5454 5441 5431 5423 5414 5404 5394 5385 5375 5362 5350 5338 5328 5317 5305 5294 5291 5279 5264 5251 5241 5235 5230 5225 5222 5222 5222 5219 5220 5220 5221 5222 5223 5226 5229 5231
5510 5500 5487 5478 5465 5458 5447 5439 5429 5421 5413 5402 5393 5384 5373 5361 5350 5339 5327 5316 5304 5292 5283 5275 5269 5255 5241 5233 5228 5222 5218 5216 5214 5213 5213 5214 5214 5214 5214 5216 5219 5221 5224
5497 5486 5474 5465 5455 5445 5434 5425 5418 5410 5402 5394 5383 5372 5361 5349 5340 5330 5316 5304 5293 5283 5274 5265 5257 5246 5236 5227 5219 5216 5215 5211 5211 5208 5209 5208 5208 5208 5209 5212 5214 5217 5219
5480 5470 5459 5448 5439 5431 5421 5414 5407 5399 5392 5383 5371 5360 5350 5340 5329 5317 5306 5295 5283 5274 5265 5256 5248 5239 5230 5224 5217 5210 5208 5208 5207 5206 5206 5204 5205 5207 5209 5210 5212 5213 5214
5465 5453 5444 5434 5424 5416 5409 5401 5393 5388 5379 5369 5362 5354 5342 5329 5316 5303 5291 5281 5270 5264 5256 5245 5239 5232 5224 5216 5208 5203 5202 5202 5204 5204 5204 5201 5199 5202 5204 5206 5207 5208 5211
5448 5438 5429 5419 5412 5406 5398 5390 5382 5375 5368 5360 5352 5342 5332 5318 5304 5293 5283 5273 5264 5253 5242 5234 5229 5223 5217 5208 5202 5199 5198 5197 5197 5197 5197 5200 5196 5198 5198 5200 5202 5204 5207
5431 5423 5416 5408 5401 5392 5383 5375 5368 5362 5356 5349 5339 5328 5318 5309 5296 5283 5274 5266 5258 5248 5235 5225 5219 5214 5209 5201 5196 5193 5191 5191 5191 5191 5191 5194 5194 5194 5194 5195 5200 5202 5203
5419 5411 5403 5394 5387 5379 5369 5361 5353 5350 5345 5338 5327 5316 5305 5296 5286 5272 5266 5254 5248 5238 5226 5219 5212 5207 5200 5195 5190 5189 5189 5190 5191 5191 5188 5186 5189 5192 5191 5193 5196 5196 5198
5404 5397 5390 5382 5374 5368 5358 5349 5339 5332 5329 5324 5318 5305 5292 5283 5275 5264 5253 5244 5237 5230 5222 5213 5207 5202 5197 5193 5187 5185 5186 5185 5186 5188 5187 5181 5180 5182 5190 5190 5190 5188 5191